Weather Roundup
Issued by NWS

Home | Current Version | Previous Version | Text Only | Print | Product List | Glossary On
Versions: 1 2 3 4 5 6 7 8 9 10 11 12 13 14 15 16 17 18 19 20 21 22 23 24 25 26 27 28 29 30 31 32 33 34 35 36 37 38 39 40 41 42 43 44 45 46 47 48 49 50
000
NZUS93 KARX 290459
HRRWXR

CURRENT HOURLY OBSERVATIONS ACROSS
MUCH OF THE UPPER MISSISSIPPI VALLEY
NATIONAL WEATHER SERVICE LA CROSSE WI
1200 AM CDT TUE JUL 29 2014


...SOUTHEAST MINNESOTA...


CITY           SKY/WX    TMP DP  RH WIND       PRES   REMARKS
ROCHESTER      CLEAR     58  53  84 W8        30.15S
ROCHESTER/MAYO FAIR      62  53  72 W5        30.14S
WINONA         CLEAR     59  55  88 N3        30.12S
AUSTIN         CLEAR     63  54  72 W5        30.15S
ALBERT LEA     CLEAR     61  54  77 W3        30.16S
DODGE CENTER   PTCLDY    61  55  82 W6        30.15S
PRESTON        CLEAR     58  56  94 W7        30.14F
OWATONNA       CLEAR     57  54  88 W3        30.15F
FARIBAULT      CLEAR     63  54  72 W5        30.15S
$$

...ELSEWHERE IN MINNESOTA...


CITY           SKY/WX    TMP DP  RH WIND       PRES   REMARKS
MINNEAPOLIS    CLEAR     66  56  70 NW6       30.13S
INTNL FALLS    PTCLDY    56  55  97 CALM      30.11F
DULUTH         PTCLDY    62  54  74 NW8       30.10F
RED WING       CLEAR     57  55  94 N3        30.11F
REDWOOD FALLS  CLEAR     59  54  83 W8        30.18S
MANKATO        CLEAR     63  52  67 NW7       30.16S
WORTHINGTON    CLEAR     55  52  88 NW6       30.22F
FAIRMONT       CLEAR     59  50  72 NW6       30.18S
$$

...SOUTHWEST WISCONSIN...


CITY           SKY/WX    TMP DP  RH WIND       PRES   REMARKS
LA CROSSE      CLEAR     63  56  78 SE3       30.10S
PRAIRIE DU CHI CLEAR     56  53  87 CALM      30.11S
BOSCOBEL       CLEAR     55  53  93 CALM      30.11S
LONE ROCK      NOT AVBL
PLATTEVILLE    CLEAR     59  53  80 NW5       30.12S
FORT MC COY    PTCLDY    53  51  94 E3        30.11F
VIROQUA        FAIR      57  53  86 W3        30.12S
WIS DELLS      CLOUDY    62  51  69 W3        30.09S
$$

...ELSEWHERE IN WISCONSIN...


CITY           SKY/WX    TMP DP  RH WIND       PRES   REMARKS
MILWAUKEE      MOCLDY    59  50  72 S5        30.05F
MADISON        MOCLDY    64  52  64 NW3       30.07F
GREEN BAY      MOCLDY    61  56  83 W6        30.02F
EAU CLAIRE     CLEAR     60  54  80 SW3       30.09F
BLACK RVR FLS  FAIR      51  51  99 CALM      30.09F
MEDFORD        LGT RAIN  59  55  85 N8G23     30.10R
WAUSAU         MOCLDY    61  56  83 NW7       30.05F
WIS RAPIDS     MOCLDY    60  55  83 W5        30.08F
MARSHFIELD     MOCLDY    60  54  80 NW7       30.08S
RICE LAKE      NOT AVBL
$$

...NORTHEAST IOWA...


CITY           SKY/WX    TMP DP  RH WIND       PRES   REMARKS
WATERLOO       CLEAR     56  54  93 CALM      30.13S
DUBUQUE        CLEAR     56  52  86 CALM      30.12S
DECORAH        CLEAR     59  54  82 CALM      30.13S
MASON CITY     CLEAR     56  53  90 W6        30.18S
CHARLES CITY   CLEAR     57  55  94 NW5       30.16R
OELWEIN        CLEAR     57  55  94 NW6       30.15S
$$

...ELSEWHERE IN IOWA...


CITY           SKY/WX    TMP DP  RH WIND       PRES   REMARKS
DES MOINES     CLEAR     63  59  87 W5        30.16S
IOWA CITY      CLEAR     61  57  87 SW3       30.14S
FORT DODGE     CLEAR     57  54  88 NW3       30.19S
MARSHALLTOWN   CLEAR     57  56  96 NW5       30.15S
CEDAR RAPIDS   CLEAR     59  54  83 NW7       30.12F
$$

...NORTHERN ILLINOIS...


CITY           SKY/WX    TMP DP  RH WIND       PRES   REMARKS
CHICAGO-OHARE  MOCLDY    62  50  64 S3        30.05S
DUPAGE         MOCLDY    62  53  72 W6        30.05F
CHICAGO-MIDWAY MOCLDY    63  51  65 SW5       30.05F
MOLINE         CLEAR     57  52  83 CALM      30.11S
ROCKFORD       MOCLDY    63  52  67 NW8       30.10S
STERLING       CLEAR     57  50  77 NW5       30.10S
PEORIA         CLEAR     60  53  77 CALM      30.11S
$$

NOTE: "FAIR" INDICATES FEW OR NO CLOUDS BELOW 12,000 FEET WITH NO
SIGNIFICANT WEATHER AND/OR OBSTRUCTIONS TO VISIBILITY. WIND
SPEEDS ARE IN MILES-PER-HOUR.



USA.gov is the U.S. government's official web portal to all federal, state and local government web resources and services.